Home   Weather   13°10'N, 77°43'E   Past weeks
Flag for India

Past Weather in 13°10'N, 77°43'E, India — Yesterday and Last 2 Weeks

Now
79 °F

Fog.


Feels Like: 81 °F
Forecast: 83 / 69 °F
Wind: 7 mph from East

Location: Bangalore / Hindustan

Current Time: Oct 19, 2019 at 10:30:56 am

Latest Report: Oct 19, 2019 at 9:30 am


Visibility: 3 mi

Pressure: 30.04 "Hg

Humidity: 74%

Dew Point: 70 °F

Location of 13°10'N, 77°43'ELocation

Past Weather in 13°10'N, 77°43'E — Graph

°F

13°10'N, 77°43'E Temperature Yesterday

Maximum temperature yesterday: 82 °F (at 3:30 pm)
Minimum temperature yesterday: 68 °F (at 5:30 am)
Average temperature yesterday: 77 °F

High & Low Weather Summary for the Past Weeks

 TemperatureHumidityPressure
High88 °F (Oct 4, 4:00 pm)100% (Oct 6, 7:00 am)30.07 "Hg (Oct 6, 7:00 am)
Low68 °F (Oct 8, 5:30 am)22% (Oct 17, 2:30 pm)29.86 "Hg (Oct 5, 3:00 pm)
Average78 °F75%29.96 "Hg
* Reported Oct 4 8:30 am — Oct 19 9:00 am, 13°10'N, 77°43'E. Weather by CustomWeather, © 2019

Note: Actual official high and low records may vary slightly from our data, if they occured in-between our weather recording intervals... More about our weather records

Advertising

13°10'N, 77°43'E Weather History for the Previous 24 Hours

Scroll right to see more
 ConditionsComfort  
Time TempWeatherWind HumidityBarometerVisibility
9:00 am
Sat, Oct 19
79 °FFog.7 mph74%30.04 "Hg2 mi
8:30 am77 °FFog.6 mph83%30.04 "Hg2 mi
8:00 am75 °FFog.6 mph89%30.04 "Hg2 mi
7:30 am73 °FFog.2 mph94%30.01 "Hg2 mi
7:00 am72 °FFog.No wind94%30.01 "Hg2 mi
6:30 am70 °FFog.No wind94%30.01 "Hg2 mi
6:00 am70 °FFog.No wind94%29.98 "Hg3 mi
5:30 am70 °FPassing clouds.No wind94%29.98 "Hg4 mi
11:30 pm
Fri, Oct 18
73 °FLight rain. Partly cloudy.3 mph94%30.01 "Hg4 mi
10:30 pm73 °FLight rain. Partly cloudy.5 mph94%30.01 "Hg2 mi
9:30 pm77 °FPassing clouds.5 mph83%30.01 "Hg4 mi
7:30 pm79 °FPassing clouds.2 mph79%29.95 "Hg4 mi
6:30 pm79 °FPassing clouds.5 mph74%29.92 "Hg4 mi
5:30 pm77 °FScattered clouds.5 mph69%29.89 "Hg5 mi
5:00 pm81 °FScattered clouds.5 mph66%29.89 "Hg5 mi
4:30 pm82 °FScattered clouds.7 mph66%29.89 "Hg5 mi
4:00 pm82 °FScattered clouds.7 mph62%29.89 "Hg5 mi
3:30 pm82 °FScattered clouds.7 mph66%29.89 "Hg5 mi
3:00 pm81 °FScattered clouds.9 mph70%29.89 "Hg5 mi
2:30 pm81 °FScattered clouds.9 mph70%29.92 "Hg5 mi
2:00 pm81 °FScattered clouds.9 mph70%29.92 "Hg4 mi
1:30 pm81 °FScattered clouds.7 mph70%29.95 "Hg4 mi
1:00 pm81 °FScattered clouds.9 mph70%29.95 "Hg4 mi
12:30 pm81 °FScattered clouds.9 mph70%29.98 "Hg4 mi
12:00 pm79 °FScattered clouds.5 mph74%29.98 "Hg4 mi
11:30 am79 °FScattered clouds.6 mph74%30.01 "Hg4 mi
11:00 am79 °FScattered clouds.9 mph74%30.04 "Hg4 mi
10:30 am77 °FScattered clouds.9 mph74%30.04 "Hg4 mi
10:00 am77 °FFog.9 mph79%30.04 "Hg2 mi
Weather by CustomWeather, © 2019

See weather overview